DAL1685 KJFK-KMCO

Flight info

Callsign DAL1685
Flight time 2h 11m
Altitude 36000
Route WAVEY EMJAY Q167 KALDA Q131 WAALT Y289 BAHAA HIBAC ALYNA4
Aircraft A321/M-SDE3FGHIRWY/LB1

Departure

Time 2026-04-26 19:59
Airport John F. Kennedy International Airport (KJFK)

Arrival

Time 2026-04-26 22:11
Airport Orlando International Airport (KMCO)
Time Latitude Longitude Altitude Speed Heading
2026-04-26 19:40 40.63782 -73.78024 16 ft 0 kts 262°
2026-04-26 19:42 40.63782 -73.78023 16 ft 0 kts 262°
2026-04-26 19:49 40.63785 -73.77992 19 ft 8 kts 262°
2026-04-26 19:49 40.63788 -73.77963 17 ft 9 kts 252°
2026-04-26 19:49 40.63801 -73.77935 18 ft 9 kts 211°
2026-04-26 19:49 40.63826 -73.77925 16 ft 9 kts 180°
2026-04-26 19:50 40.63845 -73.77926 17 ft 44 kts 173°
2026-04-26 19:50 40.63824 -73.77923 18 ft 4 kts 173°
2026-04-26 19:50 40.63807 -73.77920 17 ft 11 kts 173°
2026-04-26 19:52 40.63769 -73.77914 16 ft 7 kts 173°
2026-04-26 19:53 40.63725 -73.77907 16 ft 6 kts 173°
2026-04-26 19:53 40.63691 -73.77901 16 ft 4 kts 173°
2026-04-26 19:53 40.63666 -73.77897 16 ft 5 kts 173°
2026-04-26 19:53 40.63600 -73.77884 16 ft 10 kts 162°
2026-04-26 19:54 40.63554 -73.77825 17 ft 8 kts 126°
2026-04-26 19:54 40.63499 -73.77833 17 ft 11 kts 210°
2026-04-26 19:54 40.63439 -73.77881 16 ft 9 kts 212°
2026-04-26 19:54 40.63389 -73.77924 16 ft 11 kts 212°
2026-04-26 19:55 40.63304 -73.77982 16 ft 11 kts 201°
2026-04-26 19:55 40.63235 -73.78009 17 ft 13 kts 192°
2026-04-26 19:55 40.63131 -73.78028 17 ft 15 kts 197°
2026-04-26 19:55 40.63045 -73.78089 17 ft 13 kts 211°
2026-04-26 19:56 40.62968 -73.78150 17 ft 15 kts 211°
2026-04-26 19:56 40.62848 -73.78243 17 ft 23 kts 211°
2026-04-26 19:56 40.62729 -73.78337 17 ft 18 kts 210°
2026-04-26 19:56 40.62633 -73.78412 18 ft 15 kts 211°
2026-04-26 19:57 40.62550 -73.78476 17 ft 13 kts 211°
2026-04-26 19:57 40.62479 -73.78532 17 ft 11 kts 211°
2026-04-26 19:57 40.62419 -73.78578 17 ft 10 kts 211°
2026-04-26 19:57 40.62336 -73.78644 17 ft 17 kts 211°
2026-04-26 19:58 40.62262 -73.78658 17 ft 10 kts 139°
2026-04-26 19:58 40.62224 -73.78573 17 ft 14 kts 101°
2026-04-26 19:58 40.62295 -73.78484 22 ft 12 kts 31°
2026-04-26 19:58 40.62387 -73.78412 23 ft 31 kts 30°
2026-04-26 19:59 40.62774 -73.78110 20 ft 96 kts 31°
2026-04-26 19:59 40.63484 -73.77557 20 ft 143 kts 31°
2026-04-26 19:59 40.64432 -73.76818 242 ft 161 kts 33°
2026-04-26 19:59 40.65339 -73.76124 1069 ft 146 kts 30°
2026-04-26 20:00 40.66209 -73.75466 1681 ft 144 kts 32°
2026-04-26 20:00 40.66894 -73.74443 1846 ft 165 kts 69°
2026-04-26 20:00 40.66978 -73.72899 2135 ft 178 kts 99°
2026-04-26 20:00 40.66326 -73.71421 2284 ft 202 kts 135°
2026-04-26 20:01 40.65082 -73.70400 2445 ft 218 kts 147°
2026-04-26 20:01 40.63725 -73.69392 2561 ft 238 kts 147°
2026-04-26 20:01 40.62212 -73.68272 2847 ft 258 kts 148°
2026-04-26 20:01 40.60628 -73.67100 3525 ft 263 kts 147°
2026-04-26 20:02 40.59024 -73.65911 4237 ft 267 kts 146°
2026-04-26 20:02 40.57391 -73.64697 4971 ft 271 kts 146°
2026-04-26 20:02 40.55740 -73.63469 5697 ft 274 kts 147°
2026-04-26 20:02 40.54637 -73.62647 6161 ft 277 kts 147°
2026-04-26 20:03 40.52372 -73.60956 7049 ft 283 kts 147°
2026-04-26 20:03 40.50648 -73.59668 7683 ft 287 kts 148°
2026-04-26 20:03 40.48923 -73.58378 8303 ft 291 kts 148°
2026-04-26 20:03 40.47147 -73.57053 8937 ft 296 kts 148°
2026-04-26 20:04 40.45342 -73.55705 9601 ft 300 kts 148°
2026-04-26 20:04 40.43518 -73.54341 10197 ft 306 kts 149°
2026-04-26 20:04 40.41594 -73.52901 10333 ft 328 kts 149°
2026-04-26 20:04 40.39546 -73.51371 10454 ft 349 kts 149°
2026-04-26 20:05 40.37382 -73.49759 10661 ft 365 kts 149°
2026-04-26 20:05 40.35148 -73.48101 11115 ft 372 kts 149°
2026-04-26 20:05 40.32879 -73.46421 11652 ft 377 kts 150°
2026-04-26 20:05 40.30578 -73.44721 12205 ft 381 kts 150°
2026-04-26 20:06 40.28255 -73.43004 12775 ft 386 kts 150°
2026-04-26 20:06 40.25936 -73.41287 13314 ft 390 kts 150°
2026-04-26 20:06 40.23567 -73.39505 13864 ft 395 kts 148°
2026-04-26 20:06 40.21308 -73.37428 14344 ft 399 kts 144°
2026-04-26 20:07 40.19044 -73.35291 14862 ft 403 kts 144°
2026-04-26 20:07 40.16759 -73.33142 15337 ft 407 kts 144°
2026-04-26 20:07 40.14328 -73.31230 15827 ft 410 kts 157°
2026-04-26 20:07 40.11596 -73.30177 16299 ft 411 kts 174°
2026-04-26 20:08 40.08760 -73.30103 16845 ft 407 kts 191°
2026-04-26 20:08 40.06064 -73.30939 17311 ft 404 kts 205°
2026-04-26 20:08 40.03597 -73.32644 17743 ft 401 kts 220°
2026-04-26 20:08 40.01459 -73.34963 18214 ft 401 kts 226°
2026-04-26 20:09 39.99343 -73.37353 18676 ft 404 kts 225°
2026-04-26 20:09 39.97208 -73.39748 19115 ft 406 kts 225°
2026-04-26 20:09 39.95056 -73.42147 19552 ft 408 kts 225°
2026-04-26 20:09 39.92891 -73.44555 19990 ft 410 kts 225°
2026-04-26 20:10 39.90717 -73.46973 20439 ft 412 kts 225°
2026-04-26 20:10 39.88534 -73.49396 20881 ft 414 kts 225°
2026-04-26 20:10 39.86341 -73.51832 21322 ft 415 kts 225°
2026-04-26 20:10 39.84166 -73.54247 21756 ft 417 kts 225°
2026-04-26 20:11 39.81958 -73.56703 22180 ft 419 kts 225°
2026-04-26 20:11 39.79739 -73.59177 22598 ft 421 kts 225°
2026-04-26 20:11 39.77514 -73.61660 23005 ft 423 kts 225°
2026-04-26 20:12 39.73029 -73.66661 23737 ft 427 kts 225°
2026-04-26 20:12 39.70762 -73.69181 24006 ft 430 kts 225°
2026-04-26 20:12 39.68483 -73.71705 24323 ft 431 kts 225°
2026-04-26 20:12 39.66197 -73.74231 24661 ft 432 kts 225°
2026-04-26 20:13 39.63940 -73.76725 24990 ft 432 kts 225°
2026-04-26 20:13 39.61650 -73.79259 25322 ft 433 kts 225°
2026-04-26 20:13 39.59357 -73.81793 25660 ft 433 kts 225°
2026-04-26 20:13 39.57062 -73.84326 25992 ft 434 kts 225°
2026-04-26 20:14 39.54760 -73.86862 26307 ft 435 kts 225°
2026-04-26 20:14 39.52455 -73.89398 26631 ft 435 kts 225°
2026-04-26 20:14 39.50146 -73.91938 26947 ft 436 kts 225°
2026-04-26 20:14 39.47834 -73.94481 27266 ft 436 kts 224°
2026-04-26 20:15 39.45518 -73.97024 27575 ft 437 kts 224°
2026-04-26 20:15 39.43231 -73.99531 27861 ft 437 kts 224°
2026-04-26 20:15 39.40905 -74.02077 28083 ft 440 kts 224°
2026-04-26 20:15 39.38559 -74.04646 28244 ft 443 kts 224°
2026-04-26 20:16 39.36204 -74.07226 28468 ft 444 kts 224°
2026-04-26 20:16 39.33848 -74.09797 28877 ft 443 kts 224°
2026-04-26 20:16 39.31495 -74.12360 29206 ft 442 kts 224°
2026-04-26 20:16 39.29143 -74.14922 29497 ft 442 kts 224°
2026-04-26 20:17 39.26795 -74.17479 29889 ft 440 kts 224°
2026-04-26 20:17 39.24464 -74.20018 30277 ft 438 kts 224°
2026-04-26 20:17 39.22172 -74.22510 30597 ft 436 kts 224°
2026-04-26 20:17 39.20607 -74.24209 30803 ft 435 kts 224°
2026-04-26 20:18 39.17551 -74.27529 31181 ft 433 kts 223°
2026-04-26 20:18 39.15260 -74.30016 31590 ft 428 kts 223°
2026-04-26 20:18 39.12991 -74.32475 31964 ft 425 kts 223°
2026-04-26 20:18 39.10732 -74.34919 32291 ft 423 kts 223°
2026-04-26 20:19 39.08479 -74.37357 32558 ft 423 kts 223°
2026-04-26 20:19 39.06220 -74.39803 32705 ft 425 kts 223°
2026-04-26 20:19 39.03953 -74.42253 32930 ft 426 kts 223°
2026-04-26 20:19 39.01711 -74.44666 33182 ft 426 kts 223°
2026-04-26 20:20 38.99441 -74.47108 33451 ft 425 kts 223°
2026-04-26 20:20 38.97180 -74.49543 33720 ft 424 kts 223°
2026-04-26 20:20 38.94925 -74.51970 34039 ft 422 kts 223°
2026-04-26 20:20 38.92692 -74.54403 34312 ft 420 kts 224°
2026-04-26 20:21 38.90510 -74.56893 34542 ft 419 kts 225°
2026-04-26 20:21 38.88364 -74.59423 34761 ft 418 kts 226°
2026-04-26 20:21 38.86237 -74.61968 34970 ft 418 kts 226°
2026-04-26 20:21 38.84114 -74.64511 35182 ft 417 kts 226°
2026-04-26 20:22 38.82016 -74.67008 35379 ft 417 kts 225°
2026-04-26 20:22 38.79881 -74.69524 35571 ft 417 kts 225°
2026-04-26 20:22 38.77742 -74.72023 35802 ft 414 kts 225°
2026-04-26 20:22 38.75618 -74.74491 36098 ft 411 kts 225°
2026-04-26 20:23 38.73476 -74.76908 36159 ft 410 kts 223°
2026-04-26 20:23 38.69061 -74.81528 36173 ft 410 kts 221°
2026-04-26 20:24 38.64596 -74.86061 36163 ft 410 kts 221°
2026-04-26 20:24 38.60188 -74.90597 36164 ft 409 kts 222°
2026-04-26 20:25 38.55790 -74.95162 36162 ft 405 kts 222°
2026-04-26 20:25 38.51443 -74.99714 36156 ft 404 kts 223°
2026-04-26 20:26 38.47209 -75.04417 36159 ft 403 kts 224°
2026-04-26 20:26 38.42867 -75.08942 36145 ft 410 kts 220°
2026-04-26 20:27 38.38225 -75.13298 36142 ft 417 kts 219°
2026-04-26 20:27 38.33502 -75.17661 36147 ft 421 kts 219°
2026-04-26 20:28 38.28814 -75.22064 36146 ft 421 kts 219°
2026-04-26 20:28 38.24114 -75.26520 36148 ft 421 kts 219°
2026-04-26 20:29 38.19412 -75.30977 36152 ft 422 kts 219°
2026-04-26 20:29 38.14710 -75.35416 36162 ft 421 kts 219°
2026-04-26 20:30 38.10007 -75.39840 36169 ft 421 kts 219°
2026-04-26 20:30 38.05336 -75.44233 36166 ft 421 kts 219°
2026-04-26 20:31 38.00531 -75.48552 36140 ft 425 kts 217°
2026-04-26 20:31 37.95631 -75.52763 36147 ft 425 kts 217°
2026-04-26 20:32 37.90736 -75.56958 36166 ft 425 kts 217°
2026-04-26 20:32 37.85893 -75.61155 36174 ft 425 kts 217°
2026-04-26 20:33 37.80662 -75.64673 36169 ft 428 kts 207°
2026-04-26 20:33 37.75228 -75.67762 36158 ft 428 kts 207°
2026-04-26 20:34 37.69789 -75.70847 36165 ft 429 kts 207°
2026-04-26 20:34 37.64389 -75.73916 36166 ft 429 kts 207°
2026-04-26 20:35 37.58947 -75.77013 36169 ft 429 kts 207°
2026-04-26 20:35 37.53501 -75.80091 36172 ft 430 kts 207°
2026-04-26 20:36 37.48040 -75.83171 36168 ft 430 kts 207°
2026-04-26 20:36 37.42619 -75.86231 36159 ft 430 kts 207°
2026-04-26 20:37 37.37147 -75.89312 36163 ft 431 kts 207°
2026-04-26 20:37 37.31671 -75.92388 36143 ft 431 kts 207°
2026-04-26 20:38 37.26193 -75.95465 36152 ft 432 kts 207°
2026-04-26 20:38 37.20741 -75.98527 36149 ft 432 kts 207°
2026-04-26 20:39 37.15248 -76.01599 36152 ft 433 kts 207°
2026-04-26 20:39 37.09788 -76.04762 36135 ft 432 kts 209°
2026-04-26 20:40 37.04522 -76.08373 36132 ft 432 kts 212°
2026-04-26 20:40 36.99356 -76.12112 36130 ft 432 kts 212°
2026-04-26 20:41 36.94115 -76.15804 36133 ft 433 kts 211°
2026-04-26 20:41 36.88831 -76.19420 36117 ft 434 kts 210°
2026-04-26 20:42 36.83531 -76.23035 36122 ft 434 kts 211°
2026-04-26 20:42 36.78230 -76.26668 36128 ft 435 kts 211°
2026-04-26 20:43 36.72958 -76.30275 36145 ft 435 kts 211°
2026-04-26 20:43 36.67648 -76.33905 36139 ft 435 kts 210°
2026-04-26 20:44 36.62332 -76.37532 36144 ft 436 kts 210°
2026-04-26 20:44 36.57015 -76.41160 36149 ft 436 kts 210°
2026-04-26 20:45 36.51692 -76.44781 36133 ft 436 kts 210°
2026-04-26 20:45 36.46404 -76.48376 36134 ft 436 kts 210°
2026-04-26 20:46 36.41073 -76.51988 36131 ft 437 kts 210°
2026-04-26 20:46 36.35728 -76.55604 36116 ft 438 kts 210°
2026-04-26 20:47 36.30366 -76.59227 36117 ft 439 kts 210°
2026-04-26 20:47 36.25030 -76.62829 36119 ft 440 kts 210°
2026-04-26 20:48 36.19654 -76.66459 36121 ft 440 kts 210°
2026-04-26 20:48 36.14269 -76.70080 36124 ft 441 kts 210°
2026-04-26 20:49 36.08877 -76.73695 36126 ft 441 kts 210°
2026-04-26 20:49 36.03485 -76.77318 36127 ft 441 kts 210°
2026-04-26 20:50 35.98128 -76.80909 36111 ft 441 kts 211°
2026-04-26 20:50 35.92728 -76.84516 36117 ft 441 kts 211°
2026-04-26 20:51 35.87292 -76.88051 36113 ft 443 kts 210°
2026-04-26 20:51 35.81755 -76.91430 36092 ft 445 kts 209°
2026-04-26 20:52 35.76224 -76.94780 36089 ft 446 kts 209°
2026-04-26 20:52 35.70658 -76.98187 36106 ft 447 kts 210°
2026-04-26 20:53 35.65093 -77.01612 36121 ft 448 kts 210°
2026-04-26 20:53 35.59515 -77.05027 36127 ft 448 kts 210°
2026-04-26 20:54 35.53971 -77.08424 36106 ft 448 kts 210°
2026-04-26 20:54 35.48397 -77.11835 36124 ft 448 kts 210°
2026-04-26 20:55 35.42824 -77.15236 36124 ft 447 kts 210°
2026-04-26 20:55 35.37247 -77.18631 36116 ft 447 kts 210°
2026-04-26 20:56 35.31674 -77.22017 36109 ft 447 kts 210°
2026-04-26 20:56 35.26132 -77.25383 36077 ft 449 kts 210°
2026-04-26 20:57 35.20518 -77.28786 36064 ft 452 kts 210°
2026-04-26 20:57 35.14869 -77.32200 36056 ft 454 kts 210°
2026-04-26 20:58 35.09199 -77.35626 36064 ft 456 kts 210°
2026-04-26 20:58 35.03550 -77.39039 36071 ft 456 kts 210°
2026-04-26 20:59 34.97857 -77.42469 36083 ft 457 kts 210°
2026-04-26 20:59 34.92158 -77.45895 36087 ft 457 kts 210°
2026-04-26 21:00 34.86458 -77.49317 36086 ft 457 kts 210°
2026-04-26 21:00 34.80804 -77.52709 36078 ft 456 kts 210°
2026-04-26 21:01 34.75120 -77.56109 36111 ft 455 kts 210°
2026-04-26 21:01 34.69446 -77.59492 36089 ft 454 kts 210°
2026-04-26 21:02 34.63771 -77.62880 36071 ft 455 kts 210°
2026-04-26 21:02 34.58080 -77.66272 36046 ft 456 kts 210°
2026-04-26 21:03 34.51992 -77.68512 36065 ft 465 kts 197°
2026-04-26 21:03 34.45648 -77.70117 36065 ft 466 kts 197°
2026-04-26 21:04 34.39299 -77.71729 36067 ft 466 kts 197°
2026-04-26 21:04 34.32994 -77.73327 36042 ft 466 kts 197°
2026-04-26 21:05 34.26645 -77.74939 36042 ft 466 kts 197°
2026-04-26 21:05 34.20294 -77.76553 36044 ft 466 kts 197°
2026-04-26 21:06 34.13942 -77.78166 36047 ft 466 kts 197°
2026-04-26 21:06 34.07632 -77.79760 36020 ft 467 kts 197°
2026-04-26 21:07 34.01274 -77.81362 36026 ft 467 kts 197°
2026-04-26 21:07 33.94914 -77.82960 36033 ft 467 kts 197°
2026-04-26 21:08 33.88549 -77.84565 36035 ft 467 kts 197°
2026-04-26 21:08 33.82192 -77.86167 36017 ft 467 kts 197°
2026-04-26 21:09 33.75902 -77.87865 36024 ft 465 kts 200°
2026-04-26 21:09 33.69692 -77.89993 36013 ft 463 kts 202°
2026-04-26 21:10 33.63540 -77.92232 36012 ft 463 kts 202°
2026-04-26 21:10 33.57342 -77.94386 35981 ft 464 kts 201°
2026-04-26 21:11 33.51156 -77.96452 35989 ft 465 kts 201°
2026-04-26 21:11 33.44913 -77.98534 35985 ft 466 kts 201°
2026-04-26 21:12 33.38661 -78.00641 35985 ft 467 kts 201°
2026-04-26 21:12 33.32396 -78.02757 35970 ft 468 kts 201°
2026-04-26 21:13 33.26158 -78.04862 35972 ft 469 kts 201°
2026-04-26 21:13 33.19869 -78.06969 35961 ft 469 kts 201°
2026-04-26 21:14 33.13588 -78.09073 35965 ft 469 kts 201°
2026-04-26 21:14 33.07306 -78.11183 35969 ft 470 kts 202°
2026-04-26 21:15 33.01046 -78.13277 35967 ft 470 kts 202°
2026-04-26 21:15 32.94748 -78.15380 35970 ft 470 kts 201°
2026-04-26 21:16 32.88436 -78.17477 35969 ft 471 kts 201°
2026-04-26 21:16 32.82122 -78.19580 35975 ft 471 kts 202°
2026-04-26 21:17 32.75852 -78.21679 35975 ft 472 kts 201°
2026-04-26 21:17 32.69531 -78.23771 35949 ft 471 kts 201°
2026-04-26 21:18 32.63228 -78.25856 35961 ft 470 kts 201°
2026-04-26 21:18 32.56922 -78.27942 35956 ft 471 kts 201°
2026-04-26 21:19 32.50638 -78.30022 35954 ft 472 kts 201°
2026-04-26 21:19 32.44312 -78.32102 35951 ft 472 kts 201°
2026-04-26 21:20 32.37980 -78.34191 35955 ft 472 kts 201°
2026-04-26 21:20 32.31642 -78.36281 35936 ft 473 kts 201°
2026-04-26 21:21 32.25332 -78.38351 35939 ft 474 kts 201°
2026-04-26 21:21 32.18973 -78.40432 35945 ft 474 kts 201°
2026-04-26 21:22 32.12611 -78.42510 35943 ft 474 kts 201°
2026-04-26 21:22 32.06255 -78.44590 35940 ft 474 kts 202°
2026-04-26 21:23 31.96745 -78.47713 35936 ft 475 kts 202°
2026-04-26 21:23 31.90373 -78.49791 35935 ft 475 kts 202°
2026-04-26 21:24 31.83995 -78.51863 35937 ft 475 kts 202°
2026-04-26 21:24 31.78691 -78.53580 35944 ft 477 kts 202°
2026-04-26 21:25 31.71254 -78.55984 35938 ft 477 kts 202°
2026-04-26 21:25 31.64858 -78.58061 35938 ft 477 kts 202°
2026-04-26 21:26 31.59540 -78.59789 35933 ft 477 kts 202°
2026-04-26 21:26 31.53134 -78.61861 35939 ft 478 kts 202°
2026-04-26 21:27 31.45694 -78.64387 35939 ft 479 kts 203°
2026-04-26 21:27 31.39307 -78.66617 35942 ft 479 kts 203°
2026-04-26 21:28 31.33987 -78.68458 35939 ft 480 kts 202°
2026-04-26 21:28 31.27567 -78.70652 35935 ft 482 kts 202°
2026-04-26 21:29 31.21112 -78.72842 35943 ft 484 kts 202°
2026-04-26 21:29 31.14649 -78.75035 35942 ft 484 kts 202°
2026-04-26 21:30 31.08231 -78.77216 35945 ft 484 kts 202°
2026-04-26 21:30 31.01761 -78.79414 35933 ft 485 kts 202°
2026-04-26 21:31 30.95274 -78.81615 35941 ft 486 kts 202°
2026-04-26 21:31 30.88770 -78.83818 35954 ft 487 kts 202°
2026-04-26 21:32 30.82296 -78.86004 35960 ft 488 kts 202°
2026-04-26 21:32 30.75775 -78.88206 35931 ft 488 kts 202°
2026-04-26 21:33 30.69243 -78.90413 35932 ft 490 kts 202°
2026-04-26 21:33 30.62690 -78.92616 35938 ft 491 kts 202°
2026-04-26 21:34 30.56168 -78.94799 35939 ft 492 kts 202°
2026-04-26 21:34 30.49593 -78.97009 35949 ft 492 kts 202°
2026-04-26 21:35 30.43010 -78.99222 35933 ft 493 kts 202°
2026-04-26 21:35 30.36526 -79.01727 35943 ft 490 kts 207°
2026-04-26 21:36 30.30196 -79.04629 35952 ft 489 kts 208°
2026-04-26 21:36 30.23924 -79.07527 35947 ft 489 kts 208°
2026-04-26 21:37 30.17553 -79.10316 35948 ft 490 kts 207°
2026-04-26 21:37 30.11162 -79.13048 35948 ft 490 kts 207°
2026-04-26 21:38 30.04782 -79.15796 35945 ft 489 kts 207°
2026-04-26 21:38 29.98410 -79.18564 35948 ft 489 kts 207°
2026-04-26 21:39 29.92077 -79.21315 35929 ft 490 kts 207°
2026-04-26 21:39 29.85687 -79.24082 35940 ft 491 kts 207°
2026-04-26 21:40 29.79283 -79.26847 35948 ft 492 kts 207°
2026-04-26 21:40 29.72875 -79.29613 35957 ft 492 kts 207°
2026-04-26 21:41 29.66455 -79.32370 35939 ft 492 kts 207°
2026-04-26 21:41 29.60081 -79.35114 35958 ft 493 kts 207°
2026-04-26 21:42 29.53662 -79.37881 35965 ft 493 kts 207°
2026-04-26 21:42 29.47238 -79.40639 35971 ft 493 kts 207°
2026-04-26 21:43 29.40810 -79.43390 35897 ft 490 kts 207°
2026-04-26 21:43 29.37643 -79.44743 35116 ft 482 kts 207°
2026-04-26 21:43 29.34501 -79.46085 33943 ft 481 kts 207°
2026-04-26 21:44 29.31377 -79.47419 32807 ft 477 kts 207°
2026-04-26 21:44 29.28288 -79.48733 31675 ft 470 kts 206°
2026-04-26 21:44 29.25285 -79.50002 31211 ft 448 kts 206°
2026-04-26 21:44 29.22424 -79.51207 30659 ft 430 kts 206°
2026-04-26 21:45 29.19679 -79.52373 30136 ft 420 kts 206°
2026-04-26 21:45 29.16967 -79.53534 29635 ft 415 kts 206°
2026-04-26 21:45 29.14324 -79.54794 29130 ft 406 kts 214°
2026-04-26 21:45 29.11990 -79.56519 28634 ft 394 kts 224°
2026-04-26 21:46 29.10028 -79.58639 28186 ft 383 kts 234°
2026-04-26 21:46 29.08468 -79.61061 27728 ft 374 kts 243°
2026-04-26 21:46 29.07327 -79.63694 27296 ft 366 kts 252°
2026-04-26 21:46 29.06489 -79.66419 26874 ft 361 kts 253°
2026-04-26 21:47 29.05671 -79.69118 26462 ft 358 kts 253°
2026-04-26 21:47 29.04869 -79.71754 26049 ft 354 kts 253°
2026-04-26 21:47 29.04064 -79.74398 25651 ft 351 kts 253°
2026-04-26 21:47 29.03267 -79.77018 25266 ft 348 kts 253°
2026-04-26 21:48 29.02475 -79.79621 24880 ft 346 kts 252°
2026-04-26 21:48 29.01687 -79.82207 24500 ft 344 kts 252°
2026-04-26 21:48 29.00903 -79.84779 24123 ft 342 kts 252°
2026-04-26 21:48 29.00119 -79.87336 23747 ft 340 kts 251°
2026-04-26 21:49 28.99338 -79.89879 23324 ft 339 kts 251°
2026-04-26 21:49 28.98561 -79.92410 22926 ft 337 kts 252°
2026-04-26 21:49 28.97790 -79.94926 22511 ft 335 kts 252°
2026-04-26 21:49 28.97025 -79.97433 22107 ft 333 kts 252°
2026-04-26 21:50 28.96298 -79.99898 21706 ft 331 kts 253°
2026-04-26 21:50 28.95599 -80.02401 21296 ft 330 kts 254°
2026-04-26 21:50 28.94920 -80.04894 20895 ft 328 kts 255°
2026-04-26 21:50 28.94249 -80.07377 20491 ft 327 kts 255°
2026-04-26 21:51 28.93578 -80.09850 20087 ft 326 kts 255°
2026-04-26 21:51 28.92905 -80.12314 19676 ft 324 kts 255°
2026-04-26 21:51 28.92231 -80.14765 19276 ft 323 kts 255°
2026-04-26 21:51 28.91553 -80.17207 18875 ft 322 kts 255°
2026-04-26 21:52 28.90875 -80.19640 18473 ft 321 kts 255°
2026-04-26 21:52 28.90199 -80.22066 18054 ft 320 kts 255°
2026-04-26 21:52 28.89536 -80.24448 17675 ft 318 kts 255°
2026-04-26 21:52 28.88868 -80.26843 17338 ft 316 kts 255°
2026-04-26 21:53 28.88202 -80.29228 16957 ft 315 kts 255°
2026-04-26 21:53 28.87540 -80.31598 16576 ft 313 kts 255°
2026-04-26 21:53 28.86883 -80.33957 16191 ft 311 kts 255°
2026-04-26 21:53 28.86227 -80.36303 15826 ft 310 kts 255°
2026-04-26 21:54 28.85574 -80.38637 15457 ft 308 kts 254°
2026-04-26 21:54 28.84922 -80.40958 15083 ft 307 kts 254°
2026-04-26 21:54 28.84273 -80.43271 14715 ft 305 kts 254°
2026-04-26 21:54 28.83634 -80.45539 14350 ft 304 kts 254°
2026-04-26 21:55 28.83085 -80.47872 13991 ft 309 kts 262°
2026-04-26 21:55 28.82862 -80.50349 13716 ft 318 kts 266°
2026-04-26 21:55 28.82665 -80.52868 13416 ft 319 kts 266°
2026-04-26 21:55 28.82461 -80.55392 13134 ft 320 kts 266°
2026-04-26 21:56 28.82253 -80.57921 12854 ft 321 kts 266°
2026-04-26 21:56 28.82046 -80.60453 12569 ft 320 kts 266°
2026-04-26 21:56 28.81836 -80.62977 12280 ft 319 kts 266°
2026-04-26 21:56 28.81630 -80.65453 12000 ft 316 kts 266°
2026-04-26 21:57 28.81424 -80.67941 11729 ft 315 kts 266°
2026-04-26 21:57 28.81220 -80.70420 11456 ft 313 kts 266°
2026-04-26 21:57 28.81015 -80.72885 11186 ft 312 kts 265°
2026-04-26 21:57 28.80810 -80.75338 10906 ft 310 kts 265°
2026-04-26 21:58 28.80606 -80.77782 10634 ft 309 kts 265°
2026-04-26 21:58 28.80403 -80.80214 10365 ft 307 kts 265°
2026-04-26 21:58 28.80204 -80.82612 10176 ft 299 kts 265°
2026-04-26 21:58 28.80013 -80.84924 10035 ft 288 kts 265°
2026-04-26 21:59 28.79824 -80.87178 9782 ft 283 kts 265°
2026-04-26 21:59 28.79642 -80.89364 9626 ft 281 kts 265°
2026-04-26 21:59 28.79458 -80.91549 9421 ft 269 kts 265°
2026-04-26 21:59 28.79281 -80.93618 9125 ft 258 kts 265°
2026-04-26 22:00 28.79108 -80.95636 8878 ft 255 kts 266°
2026-04-26 22:00 28.78938 -80.97649 8629 ft 255 kts 266°
2026-04-26 22:00 28.78768 -80.99657 8391 ft 255 kts 266°
2026-04-26 22:00 28.78598 -81.01665 8188 ft 252 kts 265°
2026-04-26 22:01 28.78429 -81.03631 8060 ft 246 kts 265°
2026-04-26 22:01 28.78258 -81.05520 7849 ft 241 kts 265°
2026-04-26 22:01 28.78080 -81.07399 7565 ft 236 kts 265°
2026-04-26 22:01 28.77905 -81.09252 7387 ft 231 kts 265°
2026-04-26 22:02 28.77736 -81.11029 7276 ft 220 kts 265°
2026-04-26 22:02 28.77577 -81.12726 7182 ft 212 kts 265°
2026-04-26 22:02 28.77392 -81.14374 7087 ft 207 kts 257°
2026-04-26 22:02 28.76864 -81.15855 6992 ft 199 kts 240°
2026-04-26 22:03 28.75979 -81.17064 6768 ft 199 kts 225°
2026-04-26 22:03 28.74946 -81.18097 6498 ft 197 kts 225°
2026-04-26 22:03 28.73932 -81.19117 6236 ft 191 kts 225°
2026-04-26 22:03 28.72963 -81.20095 5988 ft 186 kts 224°
2026-04-26 22:04 28.72006 -81.21061 5756 ft 182 kts 224°
2026-04-26 22:04 28.71070 -81.22009 5530 ft 179 kts 224°
2026-04-26 22:04 28.70151 -81.22939 5312 ft 174 kts 225°
2026-04-26 22:04 28.69269 -81.23827 5112 ft 166 kts 224°
2026-04-26 22:05 28.68411 -81.24691 4905 ft 164 kts 226°
2026-04-26 22:05 28.67564 -81.25546 4704 ft 163 kts 225°
2026-04-26 22:05 28.66719 -81.26402 4489 ft 163 kts 226°
2026-04-26 22:05 28.65886 -81.27247 4288 ft 163 kts 225°
2026-04-26 22:06 28.64946 -81.27968 4092 ft 165 kts 209°
2026-04-26 22:06 28.63842 -81.28326 3817 ft 168 kts 189°
2026-04-26 22:06 28.62678 -81.28398 3558 ft 167 kts 184°
2026-04-26 22:06 28.61518 -81.28416 3335 ft 166 kts 183°
2026-04-26 22:07 28.60361 -81.28415 3122 ft 166 kts 184°
2026-04-26 22:07 28.59201 -81.28408 2902 ft 166 kts 182°
2026-04-26 22:07 28.58041 -81.28397 2682 ft 167 kts 182°
2026-04-26 22:07 28.56880 -81.28386 2473 ft 166 kts 182°
2026-04-26 22:08 28.55738 -81.28374 2257 ft 166 kts 182°
2026-04-26 22:08 28.54590 -81.28362 2031 ft 164 kts 182°
2026-04-26 22:08 28.53450 -81.28351 1821 ft 163 kts 182°
2026-04-26 22:08 28.52314 -81.28339 1620 ft 163 kts 183°
2026-04-26 22:09 28.51175 -81.28328 1398 ft 164 kts 181°
2026-04-26 22:09 28.50043 -81.28316 1199 ft 163 kts 181°
2026-04-26 22:09 28.48915 -81.28305 977 ft 163 kts 182°
2026-04-26 22:09 28.47782 -81.28293 803 ft 163 kts 184°
2026-04-26 22:10 28.46634 -81.28273 576 ft 167 kts 181°
2026-04-26 22:10 28.45494 -81.28263 333 ft 165 kts 183°
2026-04-26 22:10 28.44356 -81.28255 138 ft 163 kts 183°
2026-04-26 22:10 28.43288 -81.28251 95 ft 136 kts 179°
2026-04-26 22:11 28.42534 -81.28239 99 ft 74 kts 179°
2026-04-26 22:11 28.42328 -81.28278 100 ft 13 kts 214°
2026-04-26 22:11 28.42306 -81.28299 101 ft 8 kts 219°
2026-04-26 22:11 28.42314 -81.28356 97 ft 5 kts 350°
2026-04-26 22:12 28.42370 -81.28361 96 ft 17 kts 359°
2026-04-26 22:12 28.42458 -81.28363 98 ft 12 kts 359°
2026-04-26 22:12 28.42498 -81.28425 95 ft 11 kts 263°
2026-04-26 22:12 28.42471 -81.28519 98 ft 16 kts 250°
2026-04-26 22:13 28.42430 -81.28649 98 ft 17 kts 250°
2026-04-26 22:13 28.42396 -81.28763 102 ft 11 kts 251°
2026-04-26 22:13 28.42355 -81.28896 103 ft 25 kts 250°
2026-04-26 22:13 28.42297 -81.29098 97 ft 29 kts 259°
2026-04-26 22:14 28.42285 -81.29320 94 ft 27 kts 269°
2026-04-26 22:14 28.42283 -81.29533 94 ft 27 kts 269°
2026-04-26 22:14 28.42282 -81.29712 94 ft 19 kts 269°
2026-04-26 22:14 28.42281 -81.29856 95 ft 18 kts 269°
2026-04-26 22:15 28.42279 -81.29999 94 ft 18 kts 269°
2026-04-26 22:15 28.42300 -81.30124 95 ft 15 kts 328°
2026-04-26 22:15 28.42401 -81.30135 95 ft 14 kts
2026-04-26 22:15 28.42429 -81.30054 94 ft 11 kts 92°
2026-04-26 22:16 28.42452 -81.29957 96 ft 16 kts 59°
2026-04-26 22:16 28.42539 -81.29886 94 ft 15 kts 14°
2026-04-26 22:16 28.42608 -81.29882 96 ft 6 kts 359°
2026-04-26 22:16 28.42637 -81.29882 96 ft 0 kts 359°
2026-04-26 22:17 28.42667 -81.29887 97 ft 10 kts 335°
2026-04-26 22:17 28.42716 -81.29963 95 ft 12 kts 302°
2026-04-26 22:17 28.42743 -81.30014 95 ft 0 kts 301°
2026-04-26 22:18 28.42746 -81.30020 95 ft 3 kts 301°
2026-04-26 22:18 28.42752 -81.30030 95 ft 0 kts 301°